Wind_Speed
6 5 3 2 7 10 11 10 11 13 15 19 20 21 22 22 21 21 20 20 21 23 24 25 27 29 30 32 34 36 38 39 40 40 40 41 41 41 41 39 38 38 38 38
3 4 4 7 9 12 11 10 11 14 18 20 19 20 20 20 18 17 17 19 19 20 21 22 25 26 28 31 33 35 37 38 39 40 40 41 41 41 40 39 39 38 37 37
6 6 7 7 8 7 8 11 14 16 17 18 19 22 22 21 18 16 17 18 19 20 22 23 25 26 29 31 33 34 36 38 38 39 40 41 41 41 41 40 39 38 37 37
4 3 6 7 8 9 11 14 14 14 16 18 21 26 26 21 17 13 15 19 21 23 24 25 27 28 30 32 33 34 36 37 38 39 40 40 40 40 40 40 40 39 38 38
5 4 6 8 9 9 11 12 13 14 16 19 25 28 24 17 14 16 20 22 24 25 26 28 29 30 32 33 34 35 36 37 38 39 40 40 40 40 40 40 40 40 40 39
7 6 6 6 7 9 9 10 11 15 20 25 26 25 20 14 17 20 23 25 26 27 28 29 31 32 33 35 36 36 37 38 39 40 41 41 41 41 40 40 40 41 41 41
10 9 6 5 5 8 7 9 14 18 20 20 15 16 10 12 18 22 25 27 29 30 30 30 31 32 34 36 37 38 38 39 39 39 40 40 41 41 41 41 41 42 42 42
4 5 1 2 5 6 6 9 14 17 20 19 15 13 11 13 18 23 26 28 30 30 32 33 34 36 37 38 39 38 39 40 40 40 40 40 41 41 42 42 43 43 43 43
10 9 7 6 6 8 8 9 10 12 13 17 19 20 18 19 20 24 27 29 30 31 33 35 36 37 38 39 39 40 41 41 41 41 40 40 41 41 42 43 44 44 45 45
7 6 6 7 7 9 9 10 9 9 10 11 18 20 20 22 22 24 28 30 31 32 35 37 38 39 39 40 40 41 42 42 41 40 40 41 42 42 43 44 44 44 45 46
6 4 4 7 7 8 10 10 10 9 10 9 15 22 24 24 24 26 28 31 32 34 36 38 39 39 40 40 41 42 42 43 42 42 42 43 43 44 45 45 45 45 45 45
6 5 7 9 5 6 8 9 9 9 9 9 12 21 25 26 26 28 30 32 34 36 37 38 39 39 40 41 42 42 43 43 43 43 43 44 44 45 46 46 46 46 46 46
6 5 7 12 7 7 9 9 9 10 9 10 12 19 24 26 27 30 31 33 35 37 38 40 40 41 41 42 43 43 43 43 43 43 43 44 46 47 46 46 46 47 47 48
5 4 5 8 10 10 10 11 11 11 10 11 14 19 24 26 27 30 31 34 36 38 40 41 42 42 42 43 44 44 43 43 43 44 44 45 47 47 47 47 47 48 49 50
5 4 4 5 7 7 9 10 11 12 13 14 17 20 25 27 29 31 32 35 37 39 40 42 43 43 43 44 44 44 44 44 44 45 45 46 47 47 47 48 48 49 49 49
6 6 6 5 7 9 10 11 13 14 16 17 19 21 25 28 30 31 33 35 37 39 41 43 44 44 45 45 45 44 44 45 45 45 46 46 47 47 47 48 48 47 47 47
8 7 6 5 9 11 12 14 15 17 19 20 22 23 26 28 31 33 34 36 37 40 43 44 45 46 46 46 46 45 45 45 45 45 46 46 47 46 47 47 46 46 45 44
9 9 8 6 9 14 14 15 18 20 21 22 23 25 27 29 32 35 37 39 40 43 45 46 46 46 46 46 46 46 45 45 45 45 46 47 46 46 46 45 44 43 42 41
11 11 10 9 7 12 19 16 19 22 22 21 23 24 26 29 32 37 39 41 42 44 46 47 48 48 47 47 46 46 45 45 45 45 46 46 46 46 45 43 42 41 40 39
13 12 11 11 11 12 19 19 21 24 26 23 25 27 28 30 32 35 38 40 42 44 46 47 48 48 47 46 46 46 45 45 45 45 46 46 45 45 43 42 40 38 37 35
16 14 13 13 13 16 20 21 23 24 26 26 27 28 30 32 34 37 39 41 43 45 47 48 48 48 47 46 46 46 45 45 45 45 45 45 44 43 41 40 38 36 34 32
15 15 15 16 16 20 21 23 23 23 24 25 26 28 30 32 35 37 39 42 44 46 47 48 48 48 47 46 46 46 45 45 45 45 44 43 43 42 40 38 36 33 32 29
16 16 17 18 19 21 22 23 23 23 24 25 27 28 30 33 35 38 40 42 44 47 48 49 48 48 47 47 47 45 45 45 44 44 43 42 41 41 39 36 33 31 29 27
18 18 17 18 19 21 21 22 23 23 24 26 27 29 31 33 36 39 41 43 45 47 48 49 48 47 46 47 47 45 45 45 44 43 42 41 40 40 37 34 31 30 28 25
19 20 19 19 20 21 22 23 24 25 26 27 28 30 32 34 37 40 42 44 46 47 48 48 47 47 47 47 46 45 44 44 43 42 41 40 39 38 35 32 31 29 27 24
17 20 21 21 22 23 24 24 25 26 27 28 29 31 33 35 38 41 43 45 47 48 48 47 47 47 47 47 46 45 44 43 42 41 41 39 38 36 33 31 29 27 25 23
Wind_Direction
258 241 213 238 244 245 249 248 253 257 263 275 280 278 278 280 284 289 289 292 289 287 286 284 283 283 283 284 284 285 286 288 289 290 290 291 291 290 291 291 289 286 282 283
255 285 251 239 244 250 251 250 254 258 265 275 280 278 277 274 280 292 300 302 298 295 293 293 291 290 288 287 287 287 288 290 290 290 289 290 291 291 291 293 290 288 285 282
251 245 238 244 258 255 248 250 255 261 265 274 276 281 275 272 276 290 303 306 305 303 302 300 296 295 294 293 292 292 291 292 292 292 293 292 291 291 291 290 288 285 285 284
259 246 260 264 250 239 254 245 247 266 273 274 276 277 274 271 283 295 316 314 312 309 306 304 302 301 300 299 298 296 296 295 295 295 295 294 292 292 291 289 288 286 284 283
237 249 267 266 258 247 260 265 262 264 265 264 263 262 269 283 311 323 326 321 317 314 311 308 307 306 305 304 303 301 300 299 298 297 296 295 294 293 291 289 288 287 285 283
209 215 251 267 265 271 271 276 281 274 267 262 267 276 286 311 329 330 328 325 321 317 313 310 310 310 309 307 306 305 303 302 301 299 298 296 295 294 292 291 289 288 286 284
213 198 207 260 270 273 270 284 290 293 301 304 304 289 295 330 332 331 327 324 322 320 316 315 314 313 312 310 309 308 307 306 304 302 300 298 297 295 294 292 290 288 286 284
347 44 319 295 300 292 292 297 305 316 324 329 327 321 339 338 331 328 324 322 321 321 319 318 318 317 316 314 313 311 311 310 307 305 303 301 299 297 295 294 292 289 287 284
358 357 350 342 313 300 300 297 301 313 320 327 327 327 329 334 329 328 325 324 324 323 322 321 320 319 318 317 315 314 313 311 309 307 304 302 301 299 298 295 293 291 288 285
335 332 336 334 323 317 311 305 302 302 310 326 324 325 330 331 328 329 326 326 326 325 324 324 323 321 320 318 317 315 314 313 310 308 306 304 303 301 299 297 295 292 289 286
302 305 306 304 315 319 314 310 309 308 312 323 323 316 322 327 329 329 328 328 328 327 326 325 324 323 321 320 318 316 315 313 310 308 307 305 303 301 299 297 294 292 290 287
285 275 268 273 279 312 317 318 319 322 329 335 326 311 320 327 331 330 331 330 328 328 328 327 326 324 322 320 319 317 315 314 312 310 308 306 304 302 300 297 295 293 290 288
288 284 305 325 336 353 342 334 327 326 331 330 322 311 318 325 329 329 331 330 329 329 329 328 327 326 323 322 320 318 317 315 314 312 310 308 306 304 302 299 296 293 291 289
292 296 320 340 343 343 334 331 327 325 324 318 312 312 316 325 328 329 331 331 331 331 331 330 329 327 325 324 322 321 319 317 315 313 311 309 308 306 303 301 298 296 293 290
305 304 304 313 322 321 317 322 325 325 323 318 316 316 319 327 329 330 332 332 332 332 332 331 330 329 327 326 324 323 321 319 316 314 313 311 310 308 306 304 301 298 296 293
304 309 309 312 320 322 319 321 323 324 323 320 318 317 322 327 328 330 332 333 333 333 333 333 333 331 330 328 326 325 323 320 318 316 315 314 313 310 308 306 304 301 298 295
310 317 319 323 324 327 313 317 321 322 320 318 318 320 324 326 327 330 333 334 334 335 336 336 335 333 331 329 328 326 324 322 321 319 318 317 316 314 311 309 307 305 302 299
315 319 318 318 319 311 306 312 315 316 317 317 318 321 324 328 330 331 334 336 337 337 337 336 335 334 332 331 330 328 326 325 324 323 322 321 320 318 316 313 311 308 305 302
319 317 313 310 304 305 306 312 314 315 315 317 317 321 325 329 331 332 335 336 336 337 337 336 336 335 333 332 331 330 328 327 326 325 325 324 323 322 320 317 315 312 309 306
311 312 312 313 308 300 299 313 317 317 317 324 323 326 328 329 331 333 335 336 336 337 337 337 337 336 335 334 333 332 331 329 328 328 328 328 327 326 324 322 320 317 313 310
309 316 316 312 312 298 306 313 315 316 318 321 323 325 326 328 331 334 336 337 338 339 339 338 337 337 336 335 335 334 333 332 331 330 331 331 330 329 328 326 324 321 318 315
298 298 299 300 298 293 309 309 313 315 315 317 319 322 326 329 333 335 336 337 339 340 340 339 339 338 337 337 336 336 335 334 334 334 334 334 334 334 332 330 329 326 323 320
291 293 294 294 296 301 305 308 313 314 315 317 320 323 327 330 333 336 337 338 339 340 341 340 340 339 339 338 338 338 337 337 336 337 337 337 337 337 336 335 333 331 329 325
283 291 295 297 298 303 307 310 313 316 318 320 322 325 329 331 334 336 338 338 339 340 341 341 341 341 340 340 340 339 339 339 338 339 339 340 340 340 340 339 338 337 335 331
283 293 298 301 302 305 309 313 315 318 320 321 323 327 330 332 334 336 338 339 340 340 341 342 342 342 342 342 341 341 341 341 341 342 342 342 342 343 344 344 343 343 341 340
284 290 296 300 305 307 310 313 315 317 319 321 324 326 329 332 334 336 338 339 340 341 342 342 343 343 343 343 343 343 343 344 344 345 345 345 345 346 347 348 348 349 350 349
Height
5863 5865 5867 5870 5872 5874 5876 5877 5878 5875 5873 5873 5871 5868 5864 5862 5859 5856 5855 5856 5855 5854 5853 5851 5850 5848 5846 5845 5843 5841 5838 5835 5833 5831 5828 5825 5822 5820 5817 5814 5813 5811 5809 5807
5864 5865 5866 5867 5868 5871 5873 5874 5875 5873 5871 5870 5866 5863 5859 5856 5853 5851 5851 5852 5851 5849 5848 5846 5844 5842 5840 5838 5836 5834 5831 5828 5825 5822 5819 5817 5814 5811 5808 5806 5804 5802 5801 5799
5863 5865 5865 5865 5867 5869 5871 5871 5870 5869 5868 5866 5863 5858 5853 5850 5849 5849 5849 5848 5846 5845 5843 5842 5839 5837 5834 5832 5829 5826 5823 5820 5817 5814 5811 5807 5804 5801 5799 5797 5795 5793 5792 5790
5861 5863 5864 5864 5866 5866 5866 5866 5866 5866 5865 5863 5861 5854 5848 5843 5844 5844 5845 5845 5843 5841 5838 5836 5833 5831 5828 5825 5822 5818 5815 5812 5808 5804 5801 5798 5795 5792 5790 5787 5785 5784 5782 5781
5861 5861 5861 5863 5863 5863 5863 5863 5862 5862 5860 5859 5852 5846 5840 5836 5837 5840 5841 5840 5838 5836 5833 5830 5827 5824 5821 5817 5814 5810 5807 5803 5799 5795 5792 5788 5785 5782 5779 5777 5775 5773 5772 5771
5859 5860 5860 5861 5861 5861 5861 5861 5860 5857 5854 5850 5846 5842 5838 5835 5837 5838 5837 5836 5834 5831 5828 5824 5821 5818 5814 5810 5806 5802 5798 5794 5790 5786 5782 5778 5774 5771 5769 5766 5764 5762 5761 5759
5853 5855 5857 5859 5859 5859 5859 5859 5857 5853 5848 5843 5842 5838 5834 5835 5837 5836 5835 5832 5830 5827 5823 5818 5814 5811 5806 5802 5797 5792 5788 5784 5780 5776 5771 5767 5764 5760 5758 5755 5753 5751 5750 5748
5850 5853 5856 5857 5858 5857 5857 5857 5855 5852 5848 5842 5838 5836 5832 5833 5835 5835 5833 5830 5826 5822 5818 5813 5808 5804 5799 5794 5788 5783 5778 5774 5769 5765 5761 5757 5753 5749 5746 5743 5741 5739 5737 5736
5855 5856 5856 5856 5857 5856 5856 5855 5854 5853 5851 5846 5840 5837 5835 5835 5835 5834 5831 5827 5823 5818 5813 5808 5802 5797 5791 5786 5780 5774 5769 5764 5759 5754 5750 5746 5742 5738 5735 5731 5728 5725 5723 5722
5858 5858 5857 5857 5857 5856 5855 5853 5852 5850 5849 5848 5843 5838 5837 5835 5834 5831 5828 5824 5819 5814 5808 5802 5796 5790 5784 5778 5772 5766 5760 5754 5749 5744 5740 5735 5731 5727 5723 5719 5715 5712 5710 5707
5859 5858 5858 5856 5854 5854 5853 5851 5849 5848 5847 5847 5844 5840 5836 5834 5831 5828 5825 5820 5814 5809 5803 5797 5790 5783 5777 5771 5764 5758 5752 5746 5740 5735 5729 5725 5720 5715 5710 5706 5702 5698 5695 5693
5858 5857 5855 5852 5851 5852 5851 5850 5849 5848 5846 5845 5844 5841 5834 5831 5828 5825 5820 5815 5810 5804 5798 5791 5784 5777 5770 5764 5757 5750 5743 5737 5730 5724 5718 5713 5708 5702 5697 5692 5688 5684 5681 5678
5857 5857 5855 5851 5851 5852 5850 5849 5848 5847 5845 5844 5843 5840 5833 5829 5826 5821 5816 5811 5805 5798 5792 5785 5777 5770 5763 5756 5749 5741 5734 5727 5720 5714 5708 5701 5695 5689 5683 5678 5673 5669 5665 5661
5856 5856 5856 5855 5852 5852 5851 5849 5847 5846 5844 5843 5840 5837 5832 5828 5823 5818 5813 5807 5800 5793 5785 5778 5770 5763 5755 5747 5740 5732 5724 5717 5710 5703 5696 5690 5683 5676 5670 5664 5658 5653 5648 5644
5856 5856 5855 5854 5853 5853 5850 5849 5846 5844 5842 5840 5838 5834 5828 5824 5819 5814 5808 5802 5795 5787 5780 5772 5764 5755 5747 5739 5731 5723 5715 5707 5700 5692 5685 5678 5670 5663 5656 5649 5643 5637 5632 5627
5854 5854 5853 5852 5851 5850 5849 5847 5845 5842 5840 5837 5834 5830 5825 5820 5815 5810 5804 5797 5790 5782 5774 5765 5757 5748 5739 5731 5722 5714 5706 5698 5690 5682 5674 5666 5658 5650 5642 5635 5628 5622 5616 5610
5853 5852 5852 5850 5850 5848 5847 5845 5842 5840 5837 5834 5830 5827 5822 5817 5811 5805 5799 5792 5784 5776 5767 5758 5750 5741 5732 5723 5714 5705 5697 5688 5680 5671 5663 5654 5646 5638 5629 5622 5614 5607 5600 5594
5852 5851 5850 5849 5849 5846 5845 5843 5840 5837 5834 5830 5826 5822 5817 5812 5805 5798 5792 5785 5777 5769 5761 5752 5743 5734 5725 5715 5706 5697 5688 5679 5670 5661 5652 5643 5634 5626 5617 5609 5601 5593 5586 5580
5851 5850 5848 5847 5847 5845 5841 5840 5837 5834 5830 5827 5823 5819 5814 5808 5802 5794 5787 5779 5772 5764 5755 5746 5736 5727 5717 5708 5698 5689 5680 5670 5661 5652 5643 5633 5624 5615 5606 5597 5589 5581 5574 5568
5849 5848 5847 5845 5844 5843 5839 5836 5833 5831 5825 5823 5817 5813 5809 5804 5799 5792 5784 5776 5767 5758 5749 5740 5730 5720 5710 5701 5691 5682 5672 5663 5653 5644 5634 5624 5614 5605 5595 5587 5578 5570 5563 5557
5847 5845 5844 5842 5841 5839 5835 5832 5830 5828 5824 5818 5813 5809 5804 5798 5793 5786 5778 5770 5761 5753 5743 5733 5723 5713 5704 5694 5685 5675 5665 5656 5646 5636 5626 5616 5606 5596 5587 5578 5569 5561 5554 5548
5845 5844 5842 5840 5838 5836 5832 5828 5826 5824 5819 5814 5810 5805 5800 5794 5787 5780 5773 5765 5756 5747 5738 5728 5718 5708 5698 5688 5679 5669 5659 5649 5639 5629 5619 5609 5599 5589 5580 5571 5562 5554 5547 5541
5842 5841 5838 5837 5835 5831 5828 5824 5821 5818 5814 5810 5805 5800 5795 5789 5783 5776 5768 5760 5751 5742 5732 5722 5712 5702 5692 5682 5672 5663 5653 5643 5633 5623 5613 5603 5593 5583 5574 5564 5556 5549 5542 5536
5839 5836 5834 5832 5829 5826 5823 5820 5817 5813 5809 5805 5800 5795 5790 5784 5778 5771 5763 5754 5746 5736 5727 5717 5707 5697 5687 5677 5667 5657 5648 5638 5628 5618 5608 5598 5588 5579 5569 5560 5552 5544 5538 5532
5835 5832 5830 5828 5825 5822 5819 5816 5812 5808 5804 5800 5795 5790 5785 5779 5773 5766 5758 5749 5740 5731 5721 5711 5701 5692 5682 5672 5662 5652 5643 5633 5623 5613 5603 5594 5584 5574 5565 5557 5549 5541 5535 5528
5830 5828 5826 5823 5820 5818 5814 5811 5807 5804 5800 5795 5791 5786 5780 5774 5768 5760 5752 5744 5735 5726 5716 5706 5697 5687 5677 5668 5658 5648 5638 5629 5619 5610 5600 5590 5581 5571 5563 5555 5547 5540 5533 5528